Location: Unspecified
(0.0000°N, 0.0000°E)
Time: 01:45:30
(UTC+00:00)

Vanguard 1 - Pass Details

Date: 16 December 2017
Orbit: 649 x 3834 km, 34.2° (Epoch: 21 January)

Event Time Altitude Azimuth Distance (km) Brightness Sun altitude
Rises 14:41:09 0° 325° (NW) 5,232 13.8 43.6°
Reaches altitude 10° 14:46:47 10° 343° (NNW) 3,558 12.9 42.4°
Maximum altitude 14:51:40 16° 19° (NNE) 2,543 12.0 41.4°
Drops below altitude 10° 14:55:25 10° 57° (ENE) 2,591 11.9 40.6°
Sets 14:58:32 0° 80° (E) 3,249 12.3 39.9°
